sat.trackr.live / text

‹ back to catalog

STARLINK-37210

NORAD 68557 · 2026-070R

PAYLOAD ACTIVE UNKNOWN

§ Identity

Operator
Country
US
Launch date
2026-04-02
Launch site
AFETR
Launch vehicle
Mass (kg)
RCS (m²)

Purposes: comms

External: N2YO · Heavens-Above · Gunter

§ Orbital elements

Epoch: 2026-05-25T01:13:02.806752Z

Period
93.85 min
Inclination
53.1593°
Eccentricity
0.0001068
Mean motion
15.34402678 rev/d
Perigee alt
462.0 km
Apogee alt
463.4 km
Semi-major
6,840.8 km
B*
4.3447e-4
RAAN
7.3440°
Arg perigee
73.5656°
Mean anomaly
286.5464°
Rev number
825

§ Raw data

STARLINK-372101 68557U 26070R   26145.05072693  .00014332  00000+0  43447-3 0  99932 68557  53.1593   7.3440 0001068  73.5656 286.5464 15.34402678  8254

JSON: /api/v1/satellites/68557 · /tle

For live sub-satellite position, see the globe view (requires WebGL).

§ Visibility from observer

Set your observer location to see the next 7 days of passes ≥ 10°. The values pass through the URL so the page stays shareable.

No JS? Fill the form by hand. The geolocation button needs JavaScript.